Meteo pe oră la Bolshoe Meretkozino

Astăzi, 8 Mai, Sâmbătă

Timp Temperatura Precipitaţii Vânt Presiune Umiditate
00:00 +10°C° 0.2 mm 3 m/s 749 mmHg 92%
01:00 +10°C° 0.2 mm 3 m/s 750 mmHg 92%
02:00 +9°C° 0.2 mm 3 m/s 750 mmHg 92%
03:00 +9°C° 0 mm 3 m/s 750 mmHg 93%
04:00 +9°C° 0.3 mm 3 m/s 750 mmHg 93%
05:00 +9°C° 0.3 mm 3 m/s 750 mmHg 93%
06:00 +9°C° 0.3 mm 3 m/s 751 mmHg 93%
07:00 +9°C° 0.1 mm 2 m/s 751 mmHg 92%
08:00 +9°C° 0.1 mm 2 m/s 751 mmHg 90%
09:00 +9°C° 0 mm 2 m/s 751 mmHg 89%
10:00 +10°C° 0 mm 2 m/s 751 mmHg 87%
11:00 +10°C° 0 mm 2 m/s 751 mmHg 86%
12:00 +12°C° 0 mm 2 m/s 751 mmHg 84%
13:00 +13°C° 0 mm 2 m/s 751 mmHg 79%
14:00 +14°C° 0 mm 2 m/s 750 mmHg 74%
15:00 +15°C° 0 mm 1 m/s 750 mmHg 69%
16:00 +14°C° 0 mm 2 m/s 750 mmHg 72%
17:00 +14°C° 0 mm 2 m/s 750 mmHg 75%
18:00 +13°C° 0 mm 2 m/s 749 mmHg 78%
19:00 +12°C° 0 mm 3 m/s 749 mmHg 81%
20:00 +11°C° 0 mm 3 m/s 749 mmHg 83%
21:00 +10°C° 0 mm 3 m/s 749 mmHg 85%
22:00 +10°C° 0 mm 3 m/s 749 mmHg 84%
23:00 +10°C° 0 mm 3 m/s 748 mmHg 83%

Mâine, 9 Mai, Duminică

Timp Temperatura Precipitaţii Vânt Presiune Umiditate
00:00 +9°C° 0 mm 3 m/s 748 mmHg 83%
01:00 +9°C° 0 mm 3 m/s 748 mmHg 82%
02:00 +9°C° 0 mm 3 m/s 748 mmHg 81%
03:00 +9°C° 0 mm 3 m/s 748 mmHg 80%
04:00 +10°C° 0 mm 3 m/s 748 mmHg 79%
05:00 +10°C° 0 mm 3 m/s 748 mmHg 78%
06:00 +11°C° 0 mm 3 m/s 748 mmHg 77%
07:00 +13°C° 0 mm 4 m/s 748 mmHg 71%
08:00 +14°C° 0 mm 4 m/s 748 mmHg 65%
09:00 +16°C° 0 mm 5 m/s 748 mmHg 60%
10:00 +17°C° 0 mm 5 m/s 748 mmHg 56%
11:00 +19°C° 0 mm 5 m/s 748 mmHg 51%
12:00 +20°C° 0 mm 5 m/s 748 mmHg 47%
13:00 +19°C° 0 mm 5 m/s 748 mmHg 50%
14:00 +19°C° 0 mm 5 m/s 748 mmHg 52%
15:00 +19°C° 0 mm 4 m/s 748 mmHg 55%
16:00 +19°C° 0 mm 4 m/s 748 mmHg 58%
17:00 +19°C° 0 mm 4 m/s 748 mmHg 61%
18:00 +19°C° 0 mm 4 m/s 748 mmHg 63%
19:00 +17°C° 0.1 mm 4 m/s 748 mmHg 69%
20:00 +16°C° 0.1 mm 3 m/s 748 mmHg 74%
21:00 +14°C° 0.1 mm 3 m/s 748 mmHg 79%
22:00 +15°C° 0.2 mm 2 m/s 749 mmHg 82%
23:00 +14°C° 0.2 mm 2 m/s 749 mmHg 85%

Poimâine, 10 Mai, Luni

Timp Temperatura Precipitaţii Vânt Presiune Umiditate
00:00 +14°C° 0.2 mm 1 m/s 749 mmHg 87%
01:00 +14°C° 0.2 mm 2 m/s 750 mmHg 90%
02:00 +13°C° 0.2 mm 2 m/s 750 mmHg 92%
03:00 +12°C° 0.2 mm 3 m/s 750 mmHg 94%
04:00 +12°C° 0.1 mm 4 m/s 751 mmHg 91%
05:00 +10°C° 0.1 mm 5 m/s 751 mmHg 89%
06:00 +10°C° 0.1 mm 5 m/s 752 mmHg 86%
07:00 +10°C° 0 mm 5 m/s 752 mmHg 84%
08:00 +12°C° 0 mm 5 m/s 753 mmHg 82%
09:00 +12°C° 0 mm 5 m/s 753 mmHg 81%
10:00 +13°C° 0 mm 5 m/s 754 mmHg 78%
11:00 +13°C° 0 mm 5 m/s 754 mmHg 76%
12:00 +14°C° 0 mm 5 m/s 755 mmHg 74%
13:00 +14°C° 0 mm 6 m/s 755 mmHg 73%
14:00 +13°C° 0 mm 6 m/s 755 mmHg 72%
15:00 +13°C° 0 mm 6 m/s 756 mmHg 72%
16:00 +13°C° 0 mm 6 m/s 756 mmHg 74%
17:00 +11°C° 0 mm 6 m/s 756 mmHg 77%
18:00 +10°C° 0 mm 6 m/s 757 mmHg 79%
19:00 +9°C° 0 mm 6 m/s 757 mmHg 81%
20:00 +9°C° 0 mm 5 m/s 758 mmHg 83%
21:00 +8°C° 0 mm 5 m/s 758 mmHg 84%
22:00 +8°C° 0 mm 5 m/s 758 mmHg 86%
23:00 +8°C° 0 mm 5 m/s 758 mmHg 87%

11 Mai, Marţi

Timp Temperatura Precipitaţii Vânt Presiune Umiditate
00:00 +7°C° 0 mm 5 m/s 758 mmHg 88%
01:00 +7°C° 0 mm 5 m/s 758 mmHg 89%
02:00 +6°C° 0 mm 5 m/s 759 mmHg 91%
03:00 +6°C° 0 mm 5 m/s 759 mmHg 93%
04:00 +7°C° 0 mm 5 m/s 759 mmHg 90%
05:00 +7°C° 0 mm 5 m/s 760 mmHg 87%
06:00 +7°C° 0 mm 5 m/s 760 mmHg 84%
07:00 +9°C° 0 mm 5 m/s 760 mmHg 79%
08:00 +10°C° 0 mm 5 m/s 760 mmHg 74%
09:00 +12°C° 0 mm 5 m/s 761 mmHg 69%
10:00 +14°C° 0 mm 5 m/s 761 mmHg 66%
11:00 +15°C° 0 mm 5 m/s 761 mmHg 63%
12:00 +16°C° 0 mm 5 m/s 761 mmHg 59%
13:00 +17°C° 0 mm 4 m/s 760 mmHg 58%
14:00 +18°C° 0 mm 4 m/s 760 mmHg 56%
15:00 +18°C° 0 mm 4 m/s 760 mmHg 54%
16:00 +18°C° 0 mm 4 m/s 760 mmHg 57%
17:00 +17°C° 0 mm 3 m/s 760 mmHg 59%
18:00 +17°C° 0 mm 3 m/s 760 mmHg 62%
19:00 +14°C° 0 mm 3 m/s 760 mmHg 64%
20:00 +13°C° 0 mm 3 m/s 760 mmHg 65%
21:00 +12°C° 0 mm 3 m/s 760 mmHg 67%
22:00 +11°C° 0 mm 3 m/s 760 mmHg 67%
23:00 +11°C° 0 mm 3 m/s 761 mmHg 68%

12 Mai, Miercuri

Timp Temperatura Precipitaţii Vânt Presiune Umiditate
00:00 +10°C° 0 mm 3 m/s 761 mmHg 69%
01:00 +10°C° 0 mm 3 m/s 761 mmHg 69%
02:00 +9°C° 0 mm 3 m/s 761 mmHg 70%
03:00 +9°C° 0 mm 3 m/s 761 mmHg 70%
04:00 +10°C° 0 mm 3 m/s 761 mmHg 69%
05:00 +10°C° 0 mm 3 m/s 761 mmHg 67%
06:00 +11°C° 0 mm 4 m/s 761 mmHg 66%
07:00 +12°C° 0 mm 4 m/s 761 mmHg 62%
08:00 +13°C° 0 mm 4 m/s 761 mmHg 57%
09:00 +15°C° 0 mm 4 m/s 761 mmHg 53%
10:00 +16°C° 0 mm 5 m/s 761 mmHg 50%
11:00 +17°C° 0 mm 5 m/s 761 mmHg 47%
12:00 +19°C° 0 mm 5 m/s 761 mmHg 44%
13:00 +19°C° 0 mm 5 m/s 760 mmHg 43%
14:00 +20°C° 0 mm 5 m/s 760 mmHg 42%
15:00 +20°C° 0 mm 4 m/s 760 mmHg 42%
16:00 +19°C° 0 mm 4 m/s 760 mmHg 46%
17:00 +19°C° 0 mm 4 m/s 760 mmHg 50%
18:00 +18°C° 0 mm 3 m/s 759 mmHg 55%
19:00 +17°C° 0 mm 3 m/s 759 mmHg 57%
20:00 +14°C° 0 mm 3 m/s 759 mmHg 60%
21:00 +13°C° 0 mm 3 m/s 759 mmHg 62%
22:00 +13°C° 0 mm 3 m/s 759 mmHg 65%
23:00 +12°C° 0 mm 3 m/s 759 mmHg 68%

13 Mai, Joi

Timp Temperatura Precipitaţii Vânt Presiune Umiditate
00:00 +11°C° 0 mm 3 m/s 759 mmHg 71%
01:00 +11°C° 0 mm 3 m/s 759 mmHg 74%
02:00 +11°C° 0 mm 3 m/s 759 mmHg 77%
03:00 +11°C° 0 mm 3 m/s 759 mmHg 80%
04:00 +11°C° 0 mm 3 m/s 759 mmHg 78%
05:00 +12°C° 0 mm 3 m/s 759 mmHg 77%
06:00 +13°C° 0 mm 3 m/s 759 mmHg 75%
07:00 +14°C° 0 mm 4 m/s 759 mmHg 71%
08:00 +17°C° 0 mm 4 m/s 759 mmHg 66%
09:00 +18°C° 0 mm 4 m/s 759 mmHg 62%
10:00 +19°C° 0 mm 4 m/s 759 mmHg 58%
11:00 +21°C° 0 mm 4 m/s 759 mmHg 55%
12:00 +22°C° 0 mm 4 m/s 759 mmHg 51%
13:00 +22°C° 0 mm 4 m/s 758 mmHg 49%
14:00 +24°C° 0 mm 3 m/s 758 mmHg 48%
15:00 +24°C° 0 mm 3 m/s 758 mmHg 46%
16:00 +22°C° 0 mm 3 m/s 758 mmHg 50%
17:00 +23°C° 0 mm 2 m/s 758 mmHg 54%
18:00 +21°C° 0 mm 2 m/s 758 mmHg 58%
19:00 +20°C° 0 mm 2 m/s 758 mmHg 59%
20:00 +19°C° 0 mm 2 m/s 758 mmHg 61%
21:00 +18°C° 0 mm 2 m/s 758 mmHg 62%
22:00 +17°C° 0 mm 2 m/s 758 mmHg 64%
23:00 +17°C° 0 mm 2 m/s 758 mmHg 66%
Arată mai mult

Formular de consimțământ

Meteoprog și furnizorii noștri de servicii pot stoca și accesa date personale, precum cookies, identificatori de dispozitiv sau alte tehnologii similare pe dispozitivul dumneavoastră și procesa astfel de date pentru a personaliza conținutul și reclamele, dar și pentru a oferi caracteristici de social media și pentru a analiza traficul.

  • Stocarea și/sau accesarea informațiilor pe dispozitivul dumneavoastră

    Cookies, identificatori de dispozitiv sau alte informații pot fi stocate sau accesate pe dispozitiv în scopurile indicate mai sus.

  • Reclame și conținut personalizat, evaluarea reclamelor și a conținutului, informații despre audiențe și dezvoltarea produselor

    Reclamele și conținutul pot fi personalizate pe baza unui profil. Pot fi adăugate date suplimentare pentru a personaliza mai bine reclamele și conținutul. Performanța reclamelor și conținutului poate fi măsurată. Pot fi obținute informații despre utilizatorii care au văzut reclamele și conținutul. Aceste date pot fi utilizate pentru a dezvolta sau îmbunătăți experiența utilizatorilor, sistemele și software-ul.

Dând clic pe ‘Sunt de acord’, permiteți utilizarea cookie-urilor menționate, a identificatorilor de dispozitiv, balizelor web sau altor tehnologii similare. Setările pot fi modificate din browser-ul dispozitivului dumneavoastră.

În anumite scopuri, interesele legitime pot prima asupra consimțământului. Puteți citi mai multe informații în acest sens în Politica privind Confidențialitatea Datelor și Cookie.